Weather in Komarovo

Russia / Republic of North Ossetia — Alania     43°44′52″N   44°45′34″E
В апреле 2022 года жителям России запретили посещать сайт meteo.paraplan.net по решению Генеральной прокуратуры. Аудитория сайта уменьшилась в 10 раз. Владельцы сайта не видят смысла в поддержке погодного сервера в таких условиях. Сайт будет закрыт в октябре.
temp.,
°C
wind,
m/s
gust,
m/s
humid.,
%
clouds,
%
prec.,
mm/h
press.,
hPa
HPBL,
m
5 october, wed
wed500:00+16wsw467053 0.0 1019157
03:00+18wnw3572100 0.0 1020301
06:00+17nw3580100 0.0 1021333
09:00+19nnw237486 0.0 1021613
12:00+21nw4466100 0.1 1022915
15:00+21nw2454100 0.1 1022753
18:00+19nw4758100 0.0 1023412
21:00+18wnw3464100 0.0 1024337
6 october, thu
thu600:00+17nnw2373100 0.1 1025381
03:00+16nnw2278100 0.2 1025283
06:00+15n1185100 0.3 1025171
09:00+15ne1184100 0.4 1025355
12:00+16nne2280100 0.0 1025413
15:00+15nne2281100 0.1 1025453
18:00+15e0183100 0.0 1026167
21:00+15ne1184100 0.1 102658
7 october, fri
fri700:00+15ne0084100 0.0 102642
03:00+15ne1285100 0.0 102686
06:00+15ene2384100 0.0 1026132
09:00+16e3469100 0.0 1026445
12:00+18e445376 0.0 1025849
15:00+20e44417 0.0 10231248
18:00+17ene225014 0.0 102323
21:00+15e34590 0.0 102370
8 october, sat
sat800:00+13e410781 0.0 1023248
03:00+12e39870 0.0 1023275
06:00+11e379242 0.0 1023189
09:00+15e51075100 0.0 1022670
12:00+18e71068100 0.0 10211072
15:00+19e61061100 0.0 10191452
18:00+17e71167100 0.0 1019897
21:00+15e61071100 0.0 1019773
9 october, sun
sun900:00+15ene4877100 0.0 1018763
03:00+16e4880100 0.0 1017717
06:00+16e3683100 0.0 1016564
09:00+17ese3374100 0.0 1016568
12:00+20e3359100 0.0 1014825
15:00+21ssw115499 0.1 1013676
18:00+18wsw2270100 0.5 101327
21:00+16wsw378099 1.6 1014150